Weather Roundup
Issued by NWS Chicago, IL

Home | Current Version | Previous Version | Text Only | Print | Product List | Glossary Off
Versions: 1 2 3 4 5 6 7 8 9 10 11 12 13 14 15 16 17 18 19 20 21 22 23 24 25 26 27 28 29 30 31 32 33 34 35 36 37 38 39 40 41 42 43 44 45 46 47 48 49 50

000
NZUS59 KLOT 071508
HRRLOT

CHICAGO AREA WEATHER ROUNDUP
NATIONAL WEATHER SERVICE CHICAGO/ROMEOVILLE IL
1000 AM CDT TUE JUL 07 2015

NOTE: "FAIR" INDICATES FEW OR NO CLOUDS BELOW 12,000 FEET WITH NO
SIGNIFICANT WEATHER AND/OR OBSTRUCTIONS TO VISIBILITY.

* THESE STATIONS ARE NOT UNDER NWS QUALITY CONTROL. THEY ALSO MAY NOT
  REPORT WEATHER SUCH AS PRECIPITATION OR FOG.

ILZ005-006-012>014-019>023-071600-
NORTHEAST ILLINOIS

CITY           SKY/WX    TMP DP  RH WIND       PRES   REMARKS
OHARE          CLOUDY    61  52  72 NE17G26   29.99R
MIDWAY         CLOUDY    62  51  67 N17G26    29.99R
AURORA         CLOUDY    64  53  67 NE18      30.00R
LANSING*       CLOUDY    57  54  89 N10       29.98R
JOLIET*        CLOUDY    62  56  80 NE15G22   29.98R
WAUKEGAN       MOSUNNY   62  51  67 N17G24    29.99R
DUPAGE AIRPORT CLOUDY    62  52  69 NE12      29.99R
WHEELING       CLOUDY    63  51  65 N13G21    30.01R
KANKAKEE*      CLOUDY    59  56  89 N13G23    29.97R
MORRIS*        CLOUDY    61  57  87 NE5       29.95R
LEWIS AIRPORT* CLOUDY    60  53  77 NE20G28   29.99R
NORTHERLY IS     N/A     58  52  80 N18         N/A
$$

WIZ051-052-058>065-066-070>072-071600-
SOUTHEAST WISCONSIN

CITY           SKY/WX    TMP DP  RH WIND       PRES   REMARKS
MILWAUKEE      MOSUNNY   63  49  60 NE17G24   30.01R
KENOSHA*       MOSUNNY   64  51  62 N12       30.01R
RACINE*        SUNNY     63  51  65 N13G24    30.03R
BURLINGTON     MOSUNNY   63  55  75 NE9       30.01S
WAUKESHA       MOSUNNY   63  52  67 N7        30.03R
WEST BEND      MOSUNNY   61  48  63 N10G17    30.02R
$$

INZ001>003-010>013-019-020-071600-
NORTHWEST INDIANA

CITY           SKY/WX    TMP DP  RH WIND       PRES   REMARKS
GARY*          CLOUDY   N/A N/A N/A N12G23    29.99R
MICHIGAN CITY* NOT AVBL
RENSSELAER*    NOT AVBL
VALPARAISO     LGT RAIN  59  57  93 N16G24    29.95S
$$

LMZ740>746-071600-
SOUTHERN LAKE MICHIGAN

STATION/POSITION TIME  SKY/WX   TEMP WIND        PRES    VSBY
                                AIR  DIR/SP/G
                 (UTC)          (F)  (DEG/KT/KT) (MB)    (MI)
HARRISON CRIB    1400            57  360/ 21/ 26   N/A
BURNHAM HARBOR   1500            59  340/ 14/ 20   N/A
CALUMET HARBOR   1400            58  360/ 13/ 18   N/A
BURNS HARBOR     1400            59  360/ 18/ 23 1015.2
MICHIGAN CITY    1400            59  340/ 23/ 25   N/A
$$

ABBREVIATIONS USED IN REMARKS
   TC - TEMPERATURE IN CELSIUS
  WCI - WIND CHILL INDEX
   HX - HEAT INDEX
  VSB - VISIBILITY
$$



USA.gov is the U.S. government's official web portal to all federal, state and local government web resources and services.